Location: Unspecified
(44.0704°N, 88.6889°W)
Time: 08:17:31
(UTC+02:00)

ISS - Pass Details

Date: 24 March 2019
Orbit: 408 x 410 km, 51.6° (Epoch: 22 April)

Event Time Altitude Azimuth Distance (km) Brightness Sun altitude
Rises 02:26:28 0° 240° (WSW) 2,327 0.7 -14.2°
Reaches altitude 10° 02:28:32 10° 241° (WSW) 1,468 -0.4 -14.6°
Maximum altitude 02:31:50 82° 329° (NNW) 417 -3.8 -15.2°
Enters shadow 02:33:45 23° 55° (NE) 916 -2.4 -15.5°
